Regional Weather Roundup
Issued by NWS

Home | Current Version | Previous Version | Graphics & Text | Print | Product List | Glossary On
Versions: 1 2 3 4 5 6 7 8 9 10 11 12 13 14 15 16 17 18 19 20 21 22 23 24 25 26 27 28 29 30 31 32 33 34 35 36 37 38 39 40 41 42 43 44 45 46 47 48 49 50
000
ASUS43 KFSD 300902
RWRSD

WEATHER ROUNDUP FOR SOUTH DAKOTA
NATIONAL WEATHER SERVICE SIOUX FALLS SD
300 AM CST FRI JAN 30 2015

NOTE: "FAIR" INDICATES FEW OR NO CLOUDS BELOW 12,000 FEET WITH NO
SIGNIFICANT WEATHER AND/OR OBSTRUCTIONS TO VISIBILITY.


SDZ001>005-009-010-012>017-301000-
NORTHWEST AND NORTH CENTRAL SOUTH DAKOTA

CITY           SKY/WX    TMP DP  RH WIND       PRES   REMARKS
BUFFALO          N/A     25  16  68 S8        30.16F WCI  16
FAITH            N/A     22  17  81 S20       30.26F WCI   7
MOBRIDGE       CLEAR     21  17  84 SE14      30.35F WCI   8
$$

SDZ012>016-024>037-041>051-057-063-072>074-301000-
SOUTHWEST AND SOUTH CENTRAL SOUTH DAKOTA

CITY           SKY/WX    TMP DP  RH WIND       PRES   REMARKS
RAPID CTY ARPT CLEAR     22  13  68 E3        30.24F
PIERRE         CLEAR     21  18  88 SE12      30.39S WCI   9
CUSTER         CLEAR     27  17  66 W6        30.23F WCI  20
ELLSWORTH AFB  CLEAR     28  15  59 S3        30.23F
PHILIP         CLEAR     18  14  84 E8        30.32F WCI   8
PINE RIDGE     PTCLDY    33  17  51 SW7       30.29F WCI  27
WINNER         FAIR      24  20  84 SE12      30.41F WCI  13
$$

SDZ004>011-016>023-039-040-301000-
NORTHEAST SOUTH DAKOTA

CITY           SKY/WX    TMP DP  RH WIND       PRES   REMARKS
ABERDEEN       CLEAR     15  11  83 CALM      30.48S
WATERTOWN      MOCLDY    16  12  84 SE7       30.45F WCI   6
SISSETON         N/A     12   9  87 SE8       30.50F WCI   0
$$

SDZ017-020-022-023-036>040-048>070-301000-
SOUTHEAST SOUTH DAKOTA

CITY           SKY/WX    TMP DP  RH WIND       PRES   REMARKS
SIOUX FALLS    CLOUDY    22  16  78 SE5       30.50S WCI  16
HURON          CLEAR     18  15  88 S7        30.48F WCI   9
MITCHELL       CLEAR     19  16  88 S6        30.50F WCI  11
YANKTON        CLEAR     18  12  79 CALM      30.54S
$$

ABBREVIATIONS USED IN REMARKS
   TC - TEMPERATURE IN CELSIUS
  WCI - WIND CHILL INDEX
   HX - HEAT INDEX
  VSB - VISIBILITY




USA.gov is the U.S. government's official web portal to all federal, state and local government web resources and services.